Location: Elbart
(49.6135°N, 11.9134°E)
Time: 09:47:09
(UTC+00:00)

Spot 2 Rocket - Pass Details

Date: 09 April 2020
Orbit: 757 x 772 km, 98.6° (Epoch: 06 June)

Event Time Altitude Azimuth Distance (km) Brightness Sun altitude
Exits shadow 20:22:12 33° 184° (S) 1,272 4.3 -21.4°
Maximum altitude 20:24:28 68° 257° (WSW) 833 3.7 -21.6°
Drops below altitude 10° 20:29:34 10° 341° (NNW) 2,324 6.9 -22.2°
Sets 20:31:55 0° 344° (NNW) 3,253 7.8 -22.5°
